Location: Mentone
(34.5413°N, 85.5351°W)
Time: 12:01:20
(UTC-05:00)

Vanguard 2 Rocket - Visible Passes

Search period start: 26 March 2017 00:00
Search period end: 05 April 2017 00:00
Orbit: 553 x 3328 km, 32.9° (Epoch: 24 March)

Date Brightness Start Highest point End Pass type
(mag) Time Alt. Az. Time Alt. Az. Time Alt. Az.
26 Mar 9.6 02:06:57 19° E 02:06:57 19° E 02:09:45 10° E visible
26 Mar 7.7 04:12:46 60° WSW 04:14:44 81° S 04:28:32 10° E visible
27 Mar 8.1 03:16:43 58° ESE 03:16:43 58° ESE 03:26:18 10° E visible
27 Mar 8.5 05:22:31 19° W 05:29:42 80° S 05:45:44 10° ESE visible
28 Mar 9.3 02:20:40 24° E 02:20:40 24° E 02:24:32 10° E visible
28 Mar 7.8 04:26:29 48° W 04:29:26 82° S 04:43:13 10° E visible
29 Mar 7.7 03:30:28 72° ESE 03:30:28 72° ESE 03:41:00 10° E visible
29 Mar 8.5 05:36:17 14° W 05:44:22 71° SSW 06:00:08 10° ESE visible
30 Mar 9.0 02:34:28 29° E 02:34:28 29° E 02:39:15 10° E visible
30 Mar 8.0 04:40:18 37° W 04:44:09 77° S 04:57:49 10° ESE visible
31 Mar 7.4 03:44:19 80° S 03:44:19 80° S 03:55:41 10° E visible
31 Mar 8.6 05:50:23 10° W 05:59:00 59° SSW 06:14:13 10° SE visible
01 Apr 8.6 02:48:23 35° E 02:48:23 35° E 02:53:58 10° E visible
01 Apr 8.0 04:54:13 29° W 04:58:49 67° SSW 05:12:12 10° ESE visible
02 Apr 9.8 01:52:29 11° E 01:52:29 11° E 01:52:45 10° E visible
02 Apr 7.3 03:58:19 70° SW 03:58:58 73° S 04:10:16 10° ESE visible
03 Apr 8.4 03:02:28 40° ESE 03:02:28 40° ESE 03:08:38 10° E visible
03 Apr 8.2 05:08:18 22° W 05:13:29 53° SSW 05:26:13 10° SE visible
04 Apr 9.7 02:06:40 13° E 02:06:40 13° E 02:07:28 10° E visible
04 Apr 7.4 04:12:30 55° SW 04:13:39 61° SSW 04:24:37 10° ESE visible
